Regional Weather Roundup
Issued by NWS

Home | Current Version | Previous Version | Graphics & Text | Print | Product List | Glossary On
Versions: 1 2 3 4 5 6 7 8 9 10 11 12 13 14 15 16 17 18 19 20 21 22 23 24 25 26 27 28 29 30 31 32 33 34 35 36 37 38 39 40 41 42 43 44 45 46 47 48 49 50
000
ASUS43 KLSX 252010
RWRMO

WEATHER SUMMARY FOR MISSOURI
NATIONAL WEATHER SERVICE SPRINGFIELD MO
300 PM CDT WED APR 25 2018

NOTE: "FAIR" INDICATES FEW OR NO CLOUDS BELOW 12,000 FEET WITH NO
       SIGNIFICANT WEATHER AND/OR OBSTRUCTIONS TO VISIBILITY.
       CURRENT SKY AND/OR WEATHER CONDITIONS ARE NOT AVAILABLE FOR
       CHILLICOTHE AND FARMINGTON.

MOZ001>031-035>038-043-044-053-054-252100-
...NORTHERN AND WESTERN MISSOURI...

CITY           SKY/WX    TMP DP  RH WIND       PRES   REMARKS
KANSAS CTY INT LGT RAIN  48  46  93 N13       30.12F FOG
KANSAS C DTWN  LGT RAIN  50  46  86 N8        30.11F
LEE`S SUMMIT   LGT RAIN  49  48  97 NE9       30.11F
ST JOSEPH      LGT RAIN  50  48  93 N9        30.14F
CHILLICOTHE      N/A     51  47  86 N5        30.13F
KIRKSVILLE     CLOUDY    56  43  61 N7        30.09F

$$
MOZ066>068-077>081-088>096-101>105-252100-
...SOUTHWEST MISSOURI...

CITY           SKY/WX    TMP DP  RH WIND       PRES   REMARKS
SPRINGFIELD    LGT RAIN  56  49  77 CALM      30.06F
JOPLIN         LGT RAIN  56  53  90 CALM      30.06F FOG
BRANSON        LGT RAIN  54  52  94 CALM      30.08F FOG

$$
MOZ032>034-039>042-045>050-055>058-069>072-252100-
...CENTRAL MISSOURI...

CITY           SKY/WX    TMP DP  RH WIND       PRES   REMARKS
COLUMBIA       CLOUDY    55  47  74 N10       30.07F
JEFFERSON CITY CLOUDY    60  43  53 NW8       30.06F
ROLLA          CLOUDY    58  43  57 NW9       30.05F
SEDALIA        LGT RAIN  52  50  93 NW7       30.11S
WHITEMAN AFB   RAIN      51  50  94 N8        30.06F
WARRENSBURG    LGT RAIN  50  46  87 N6        30.11F
OSAGE BEACH    CLOUDY    59  47  64 W7        30.08F

$$
MOZ051-052-059>065-252100-
...EAST CENTRAL MISSOURI...

CITY           SKY/WX    TMP DP  RH WIND       PRES   REMARKS
ST LOUIS INTL  CLOUDY    65  53  65 VRB7      30.01F
SPIRIT OF STL  CLOUDY    66  52  60 VRB7      30.01F
ST CHARLES     CLOUDY    65  52  62 NE7       30.01F

$$
MOZ072>076-082>087-097>100-106>115-252100-
...SOUTH CENTRAL AND SOUTHEAST MISSOURI...

CITY           SKY/WX    TMP DP  RH WIND       PRES   REMARKS
CAPE GIRARDEAU FAIR      69  54  58 W6        29.97F
FARMINGTON     CLOUDY    65  47  52 NW7       30.01F
POPLAR BLUFF   CLOUDY    67  53  61 S10       29.99F
WEST PLAINS    LGT RAIN  58  49  72 W12       30.07S

$$



USA.gov is the U.S. government's official web portal to all federal, state and local government web resources and services.